GFSMW_700_spd_129.txt.gz
Wind_Speed
49 45 42 37 47 46 42 48 44 40 38 40 38 35 33 28 27 22 19 25 28 27 27 24 21 17 13 11 11 15 20 25 26 26 23 16 27 28 28 29 27 24 23
53 49 44 42 37 52 49 42 53 50 48 47 44 39 34 31 31 30 23 21 27 31 30 28 25 22 18 16 14 13 19 24 27 29 23 23 22 26 29 33 31 26 24
54 52 49 46 39 38 46 43 45 52 55 55 47 44 41 39 37 34 28 23 24 29 31 31 28 26 23 20 17 15 16 21 27 29 30 29 29 27 34 30 36 32 27
56 50 45 45 42 36 34 42 46 44 53 52 54 47 41 42 39 33 27 22 23 27 27 31 31 30 27 24 20 18 17 19 24 29 30 30 30 27 33 25 34 41 32
49 49 39 40 43 36 39 31 39 44 42 48 46 41 42 39 39 35 26 25 24 26 28 30 33 32 30 27 23 21 20 20 23 28 28 30 31 32 30 37 34 39 28
25 31 34 29 43 50 47 29 30 37 42 45 42 39 37 38 36 35 30 26 28 31 31 30 35 34 32 30 25 23 23 22 25 27 29 32 33 34 35 35 35 36 37
19 25 29 33 42 38 45 30 22 28 39 40 41 39 36 32 28 28 27 27 30 32 32 30 33 35 34 32 28 26 25 25 25 26 32 37 36 33 38 42 43 49 37
21 26 27 31 48 32 34 35 26 24 37 27 31 31 28 28 31 28 27 29 32 33 33 30 32 35 35 33 30 28 27 27 27 28 31 32 40 38 35 40 44 42 34
19 27 23 29 39 40 37 46 36 28 30 38 31 31 31 30 30 31 29 32 34 33 34 32 32 36 36 33 31 28 28 28 28 29 31 34 33 38 37 39 46 56 42
13 7 11 18 33 44 36 37 38 34 31 30 33 31 28 31 34 34 33 33 32 34 36 31 31 34 34 33 29 28 28 28 29 29 33 33 36 36 44 46 45 47 50
10 13 18 20 27 33 34 34 33 35 32 31 28 27 28 32 34 35 35 32 31 34 36 31 30 31 30 29 29 28 28 30 30 31 33 33 35 32 43 37 46 44 45
11 12 15 15 17 23 21 24 25 24 27 27 28 29 33 33 35 35 32 32 36 37 34 30 29 28 28 29 27 28 28 29 31 31 31 30 33 36 38 39 44 49 44
12 12 16 17 16 12 12 11 15 18 22 24 25 28 30 30 31 32 29 29 31 31 31 28 29 27 25 26 27 28 28 30 31 31 33 28 41 39 36 43 43 44 42
20 20 24 21 13 18 19 17 18 19 20 22 24 26 28 31 30 26 27 30 28 30 26 26 30 27 29 27 27 28 29 30 31 31 32 34 33 42 45 43 46 45 48
10 23 21 18 15 13 16 14 11 10 10 13 17 23 27 29 31 31 30 27 30 26 28 30 31 31 32 28 28 29 29 30 29 27 29 31 35 39 42 46 49 44 43
8 8 22 24 17 14 12 11 6 2 2 6 7 12 15 15 18 17 23 19 27 23 31 34 30 32 29 30 28 29 29 29 28 25 24 29 37 41 41 42 36 44 44
18 14 16 21 16 10 9 9 6 4 2 3 4 6 9 13 17 18 22 24 26 24 26 28 35 31 28 28 28 29 28 29 27 24 24 27 26 29 31 35 27 32 39
17 11 15 14 10 8 6 5 3 1 1 2 3 5 11 14 20 19 25 26 26 34 27 24 29 32 30 28 29 29 29 28 24 20 18 21 18 17 23 20 29 31 31
8 6 3 1 3 3 4 5 4 4 6 7 7 6 7 12 19 24 22 25 28 26 27 27 27 30 31 30 30 29 28 28 22 21 21 21 18 14 13 11 13 30 35
5 5 5 4 4 5 7 7 7 6 7 8 10 10 9 11 11 17 23 26 26 32 27 26 28 26 27 24 29 28 28 27 22 22 23 21 19 15 17 14 12 18 34
4 6 4 4 7 5 6 7 8 8 8 9 10 12 12 11 11 12 12 23 34 28 28 25 28 24 25 29 28 28 27 26 24 25 26 20 20 19 13 15 19 17 20
7 6 6 6 8 8 7 8 8 9 8 8 8 10 13 13 13 12 13 10 16 34 34 32 30 35 35 29 30 30 27 22 23 27 25 27 21 19 15 19 21 23 23
10 7 6 7 8 7 6 7 8 8 7 6 7 7 10 12 15 15 14 13 12 16 29 34 31 30 27 29 25 28 27 23 27 32 28 25 18 17 21 20 19 24 24
11 9 8 7 7 7 6 6 7 6 7 6 6 7 8 10 13 15 16 16 15 13 18 28 28 33 33 34 29 32 27 35 30 29 26 29 29 29 29 29 27 28 32
10 9 8 8 8 8 7 7 6 7 7 7 8 8 8 8 10 14 16 15 15 12 10 17 27 29 31 35 37 38 32 35 30 30 27 26 27 29 30 31 33 36 32
10 8 7 7 7 8 7 7 7 7 6 6 7 9 9 10 10 10 11 13 13 12 8 8 13 18 21 21 26 26 30 34 40 40 32 38 36 35 36 36 37 34 34

GFSMW_700_spd_132.txt.gz
Wind_Speed
55 59 60 53 51 45 39 45 48 45 39 47 45 42 39 35 30 25 23 21 24 26 26 24 23 21 17 12 11 11 14 20 24 26 25 25 21 18 23 26 21 26 24
48 48 60 60 56 48 40 41 43 46 47 40 46 45 40 40 33 27 27 24 20 21 27 27 26 25 23 19 16 14 13 15 21 24 24 27 23 21 21 25 24 26 26
51 51 49 61 59 52 42 35 42 41 47 47 44 43 43 42 40 34 29 28 26 23 22 28 29 28 27 24 21 18 16 15 17 22 26 27 24 21 19 20 24 22 33
44 49 51 52 60 53 44 39 34 40 45 47 51 51 48 45 41 32 34 32 32 27 21 23 26 31 31 28 26 22 19 19 18 20 25 26 26 24 23 23 19 27 23
36 41 40 44 51 48 45 38 39 35 46 48 45 53 56 49 40 36 39 35 33 30 24 23 26 29 31 32 30 26 23 21 21 20 20 23 29 29 27 23 22 25 29
29 22 20 18 22 35 27 37 36 31 41 52 47 47 53 53 48 44 43 38 35 32 27 23 25 29 30 33 33 28 26 24 23 22 23 22 30 32 29 27 25 25 30
19 8 11 11 21 25 27 36 39 38 36 43 45 41 43 40 41 41 41 41 37 36 31 28 26 27 30 33 34 31 29 28 24 23 24 25 26 27 30 31 33 31 36
20 8 9 15 26 29 28 26 36 42 34 36 40 41 36 43 39 39 39 38 35 36 32 28 28 29 30 32 35 34 32 30 27 26 25 27 27 29 31 36 37 40 37
23 15 6 10 21 26 28 29 31 39 31 24 26 36 41 43 39 36 39 33 32 38 31 29 30 31 31 33 35 36 33 31 29 28 27 28 28 30 32 33 34 38 44
16 13 6 4 18 24 30 32 22 43 29 26 29 28 38 38 41 34 36 37 37 35 32 30 31 30 31 33 36 37 34 32 30 29 29 29 29 30 33 34 37 39 43
12 8 8 13 8 16 31 32 26 46 23 25 29 36 33 37 32 31 31 34 36 32 29 28 30 30 31 33 34 35 33 31 30 30 30 29 31 32 33 35 35 37 39
14 5 15 16 11 16 19 27 20 30 31 20 28 30 35 40 39 29 31 33 32 29 27 27 29 29 31 31 32 33 32 31 30 30 30 30 31 33 32 33 37 36 37
14 5 5 25 16 14 15 25 26 24 22 25 24 25 24 23 22 26 31 33 31 29 28 31 32 27 30 29 29 29 30 30 30 30 29 30 33 31 29 31 30 38 39
18 18 20 22 11 12 7 13 10 10 15 14 20 22 22 19 27 30 33 31 31 31 29 28 28 27 25 28 27 26 28 29 29 28 29 30 30 32 31 31 38 47 40
19 19 18 18 14 8 9 6 8 11 9 10 13 18 23 26 28 27 28 27 24 25 26 24 25 23 26 21 27 25 27 28 28 29 29 29 29 29 32 37 37 37 47
27 21 19 18 21 18 15 14 11 10 10 9 9 10 14 19 24 25 26 28 26 24 24 26 27 30 23 25 29 28 26 28 29 29 28 28 27 27 32 36 41 45 48
21 19 19 14 17 16 15 10 8 8 6 4 5 4 5 8 12 11 13 20 23 21 21 26 27 22 24 32 32 26 26 28 28 28 28 26 25 27 31 29 28 34 44
18 16 13 15 15 15 11 7 4 2 0 1 3 4 7 8 11 16 14 18 18 23 17 20 22 27 26 29 29 30 30 28 28 28 27 26 24 26 28 25 23 26 34
21 14 14 6 11 7 9 7 5 4 5 5 6 6 6 7 16 16 18 17 23 22 20 24 20 27 20 25 25 29 28 29 28 28 27 26 24 24 28 25 21 17 22
18 14 10 9 7 8 9 8 7 6 6 6 7 7 8 9 9 10 17 20 22 26 28 25 21 21 27 28 28 24 27 28 29 30 28 26 24 25 25 29 24 23 15
16 14 13 10 10 9 10 9 9 9 7 7 8 8 9 10 10 10 12 13 21 25 27 23 27 25 30 30 27 26 22 21 27 28 28 24 23 24 24 25 23 19 17
12 15 16 11 9 8 9 10 10 9 9 7 7 8 8 9 10 12 12 12 14 13 23 31 28 26 24 25 24 25 29 29 24 25 26 24 22 21 25 22 19 17 15
13 16 15 12 9 8 8 9 9 9 9 7 6 6 7 8 8 11 13 13 14 13 15 17 33 36 29 33 28 34 35 28 30 25 23 22 22 23 29 20 22 18 18
12 15 14 12 11 11 9 9 8 8 8 8 7 7 6 6 8 9 10 12 13 14 14 14 17 28 31 30 26 23 27 26 23 21 24 21 29 28 27 24 23 23 23
11 13 12 11 11 10 10 10 9 8 8 8 8 7 6 5 5 6 9 11 12 12 11 11 11 19 23 22 24 27 30 28 28 25 30 28 33 29 28 28 28 30 32
12 14 13 11 10 10 9 8 8 8 7 7 8 8 8 7 7 7 7 6 7 9 9 8 9 9 17 26 30 29 28 27 29 30 35 32 33 33 32 31 29 30 31

GFSMW_700_spd_135.txt.gz
Wind_Speed
46 46 46 47 55 55 58 57 53 54 57 50 51 51 47 44 36 32 30 30 29 30 28 27 25 22 19 15 13 9 8 11 17 23 24 24 23 23 19 17 23 24 23
52 54 55 48 53 57 52 61 58 55 60 57 50 48 44 46 39 35 33 31 28 27 28 29 28 26 23 21 19 15 12 11 11 17 21 24 23 22 19 17 22 21 22
53 49 54 50 51 58 54 57 61 54 58 61 53 48 42 50 46 43 38 32 30 27 24 23 28 29 27 25 23 21 19 15 14 14 18 20 21 17 19 19 16 20 21
61 48 44 46 45 49 56 48 58 55 49 59 56 52 45 51 52 46 41 37 35 32 29 26 24 29 30 29 27 25 24 21 18 17 17 18 20 20 20 20 21 19 22
68 44 40 40 37 37 46 44 54 52 45 54 60 55 49 46 50 49 44 41 37 36 32 29 26 26 28 29 30 30 29 26 23 20 19 19 19 20 20 20 22 25 23
51 44 30 31 29 32 39 33 52 46 44 44 49 54 49 49 51 46 45 44 38 40 36 33 30 28 28 30 29 31 32 30 27 24 23 21 19 20 18 22 21 18 21
52 35 28 21 18 21 28 35 46 43 43 39 40 60 51 46 47 50 47 44 44 42 39 35 32 32 27 26 30 30 33 32 31 28 25 23 23 21 22 23 25 26 23
44 33 21 15 11 17 31 36 41 36 36 41 40 42 49 48 45 44 48 52 48 41 41 38 35 34 33 30 30 30 31 35 34 31 29 26 25 23 25 25 28 29 30
39 31 16 8 3 13 26 31 34 35 37 34 34 42 43 48 48 47 51 47 47 47 43 42 38 36 37 35 32 33 33 35 36 35 32 29 27 27 27 28 30 31 35
40 26 14 2 12 14 22 23 32 33 31 34 40 38 38 44 49 52 48 44 43 45 43 42 40 41 40 35 35 35 33 34 36 36 35 31 30 29 29 30 30 31 35
39 27 18 11 2 12 18 22 30 27 29 36 44 42 38 38 53 51 48 47 46 45 42 43 44 41 39 37 36 34 33 35 36 36 36 33 32 30 30 30 30 33 32
31 29 15 14 11 10 13 23 31 28 32 37 43 47 39 27 28 34 39 38 46 46 42 47 38 36 37 35 31 33 32 34 36 37 36 34 33 31 31 29 30 30 31
31 25 19 16 25 18 12 24 28 23 31 35 40 39 47 34 28 30 30 39 39 46 51 41 35 31 30 28 28 31 32 33 34 35 34 33 32 31 30 30 29 28 30
36 28 23 28 26 21 19 20 20 19 22 36 33 39 46 45 30 30 27 34 43 50 55 31 30 32 29 29 25 25 28 30 32 32 32 31 32 30 29 30 28 28 31
35 32 25 25 24 24 18 15 14 16 16 21 21 14 10 9 7 13 19 24 29 29 35 30 32 30 33 28 30 25 26 26 26 30 31 31 30 30 29 28 26 28 31
34 33 26 19 30 29 22 18 17 15 12 12 12 12 15 23 23 27 25 21 19 20 26 29 30 28 30 28 27 28 22 29 23 28 29 29 29 28 27 26 26 29 34
30 31 26 19 16 26 23 16 13 12 11 11 11 10 12 22 30 31 29 27 27 28 29 27 27 25 26 29 24 26 28 21 29 29 29 29 28 27 26 26 27 30 31
26 26 24 21 19 15 19 18 12 8 5 5 4 5 8 10 9 14 16 15 26 32 27 27 27 28 27 29 33 27 26 28 30 26 27 27 26 26 26 27 27 31 30
24 24 21 20 15 15 14 17 13 10 5 2 1 1 2 4 14 11 14 18 16 20 21 17 24 29 35 33 30 22 25 26 27 29 28 27 26 27 28 27 27 28 28
20 21 17 15 15 17 14 12 13 13 11 6 3 3 5 5 5 10 19 21 17 25 22 24 23 30 24 28 28 24 23 25 22 26 28 28 27 28 28 28 27 28 29
19 20 19 17 14 17 13 12 10 10 10 7 5 4 6 7 8 8 9 9 15 21 22 25 28 27 21 21 20 29 27 27 25 19 21 24 27 29 30 27 25 23 28
17 19 19 17 14 14 14 13 10 9 9 8 6 5 4 6 8 10 11 10 12 12 13 17 26 28 29 33 29 29 27 28 24 24 23 20 23 26 26 26 24 25 28
18 18 18 18 15 14 12 12 12 11 9 8 6 5 4 5 7 9 11 13 13 14 12 14 13 20 27 29 23 22 25 26 30 26 31 25 22 18 21 25 24 23 22
15 16 16 16 16 14 11 10 10 10 10 8 7 6 5 4 6 8 10 12 13 15 15 14 14 14 18 28 34 34 29 31 30 32 30 26 25 21 27 27 29 28 25
16 12 13 16 14 14 12 10 10 10 9 9 8 7 6 5 5 4 6 9 12 13 13 12 11 11 11 14 20 28 36 36 26 29 27 26 25 27 28 28 31 32 29
15 15 11 13 15 14 14 12 9 9 9 9 9 8 7 6 6 6 5 4 7 9 10 9 9 9 8 9 18 20 20 23 28 28 25 29 33 31 33 36 34 29 30

GFSMW_700_spd_138.txt.gz
Wind_Speed
32 32 38 41 45 44 50 63 54 60 61 64 63 65 64 57 50 45 40 36 37 37 34 31 28 25 21 17 14 11 9 10 14 18 23 26 26 27 24 22 21 21 21
37 39 45 44 49 53 48 53 66 55 64 62 64 64 66 61 56 48 41 40 41 40 37 36 32 29 26 24 21 18 14 13 10 12 17 22 22 22 22 22 21 18 19
42 48 55 49 49 40 40 42 47 58 57 65 62 65 63 61 62 54 46 46 42 41 39 38 35 33 30 27 26 23 21 18 15 16 13 17 15 17 19 20 21 19 17
47 56 58 52 47 44 43 45 47 51 52 57 58 64 67 67 67 59 48 47 42 40 37 37 34 30 31 30 29 27 25 24 21 20 17 17 15 14 18 20 21 21 18
54 61 56 44 42 40 33 40 45 52 45 55 62 56 65 64 65 50 52 49 44 42 39 37 33 30 27 27 29 31 30 28 27 24 21 20 19 16 19 18 21 23 22
53 60 49 38 38 36 37 35 41 46 45 51 58 56 60 55 54 55 54 51 48 45 42 41 38 33 30 27 26 31 32 32 32 29 27 24 21 19 18 19 18 21 24
52 57 50 37 36 35 29 27 32 36 40 47 54 50 56 54 48 53 48 54 54 49 47 44 41 38 34 32 29 29 32 32 33 33 30 28 25 22 23 21 21 19 23
54 52 49 42 29 24 19 15 22 28 34 46 47 43 47 52 50 54 55 53 59 52 48 46 45 42 38 36 33 29 30 33 33 34 35 32 30 26 26 25 24 22 24
53 49 47 39 23 17 8 6 23 27 36 37 41 38 36 47 57 54 53 52 47 46 46 49 47 45 42 40 38 34 32 32 35 34 37 37 31 27 29 29 27 22 26
49 48 44 37 16 13 9 2 20 32 33 38 36 33 34 40 46 44 46 48 48 51 52 50 48 47 46 43 40 38 37 36 37 38 39 39 38 35 33 31 29 27 26
47 49 41 31 15 5 4 6 12 28 34 35 34 34 32 33 38 47 47 50 49 43 54 54 55 50 45 45 44 43 41 38 38 40 39 39 39 38 37 34 32 31 31
45 45 36 31 17 3 6 9 22 25 25 26 33 33 34 32 34 42 46 51 56 60 54 57 57 48 43 48 46 42 38 38 42 39 38 38 38 39 38 36 33 32 32
42 43 33 29 25 12 12 14 14 24 28 29 26 28 35 37 37 40 44 52 52 42 48 46 46 46 47 50 50 43 35 44 35 37 36 37 38 38 38 36 33 33 33
38 40 35 26 23 24 19 18 19 21 22 23 25 25 30 39 39 37 40 47 42 38 44 39 37 40 49 49 43 48 36 37 37 36 37 38 38 36 36 35 35 34 32
35 36 35 28 26 28 25 17 13 13 14 15 22 23 27 35 38 40 39 30 33 36 37 38 42 45 52 52 44 45 28 28 32 35 30 33 36 36 35 35 35 32 32
32 33 33 32 23 26 34 20 15 11 3 13 25 31 23 39 31 35 46 37 33 30 34 40 41 42 40 40 47 61 34 33 26 27 29 30 30 32 34 34 33 31 31
32 31 29 30 28 23 28 28 27 13 12 7 10 14 34 11 16 15 26 41 38 24 25 26 40 47 50 48 41 42 38 32 31 25 27 24 27 31 33 32 32 31 31
29 28 27 26 22 25 22 21 21 17 15 11 0 10 12 13 14 17 23 21 21 26 25 22 21 19 20 24 28 31 42 34 32 26 25 28 30 31 32 32 30 30 30
26 27 26 24 21 18 18 17 16 16 9 4 1 4 8 13 9 12 13 21 27 29 29 25 29 24 27 27 27 20 30 26 19 22 27 29 34 31 31 31 30 30 30
22 23 23 22 19 15 17 16 13 12 12 7 4 4 7 7 9 14 12 12 18 12 19 31 31 31 30 31 27 29 20 19 23 25 26 27 30 31 30 31 30 29 30
20 20 22 22 19 15 16 16 15 14 11 8 4 4 7 8 9 9 12 16 17 23 18 17 21 23 22 26 31 29 30 30 25 25 28 26 21 26 28 28 30 30 33
20 19 20 20 19 16 13 14 14 14 13 11 7 5 5 7 9 11 11 10 11 12 18 22 24 26 33 29 30 22 25 20 23 28 27 23 19 15 22 27 28 28 28
20 19 17 18 19 17 14 13 12 12 12 12 11 8 6 6 7 9 10 11 12 13 14 14 17 22 23 30 30 26 29 32 26 27 27 25 22 24 21 18 22 23 28
18 19 17 16 16 17 15 13 12 11 11 12 12 12 10 7 6 7 8 9 11 13 14 15 16 17 18 19 23 30 30 23 21 26 26 26 32 29 25 23 24 23 25
18 16 18 16 15 15 14 13 12 11 10 10 10 10 10 10 8 6 6 8 11 12 13 13 13 14 14 15 16 20 27 31 31 24 27 25 29 35 34 30 30 28 31
17 16 16 17 14 12 13 12 11 11 10 8 9 10 9 9 9 9 7 5 5 9 12 13 11 11 12 12 13 15 13 15 18 20 21 21 23 22 25 27 30 31 34